Year,Month,Day,Hour,Minute,Value (Times are PST for temperature in C)
2015,02,12,00,00,8.70
2015,02,12,00,01,8.70
2015,02,12,00,02,8.70
2015,02,12,00,03,8.80
2015,02,12,00,04,8.70
2015,02,12,00,05,8.80
2015,02,12,00,06,8.80
2015,02,12,00,07,8.80
2015,02,12,00,08,8.80
2015,02,12,00,09,8.80
2015,02,12,00,10,8.80
2015,02,12,00,11,8.90
2015,02,12,00,12,8.90
2015,02,12,00,13,9.00
2015,02,12,00,14,9.10
2015,02,12,00,15,9.10
2015,02,12,00,16,9.10
2015,02,12,00,17,9.20
2015,02,12,00,18,9.20
2015,02,12,00,19,9.20
2015,02,12,00,20,9.30
2015,02,12,00,21,9.30
2015,02,12,00,22,9.30
2015,02,12,00,23,9.20
2015,02,12,00,24,9.20
2015,02,12,00,25,9.20
2015,02,12,00,26,9.20
2015,02,12,00,27,9.30
2015,02,12,00,28,9.30
2015,02,12,00,29,9.30
2015,02,12,00,30,9.30
2015,02,12,00,31,9.30
2015,02,12,00,32,9.30
2015,02,12,00,33,9.30
2015,02,12,00,34,9.30
2015,02,12,00,35,9.20
2015,02,12,00,36,9.20
2015,02,12,00,37,9.20
2015,02,12,00,38,9.20
2015,02,12,00,39,9.20
2015,02,12,00,40,9.20
2015,02,12,00,41,9.10
2015,02,12,00,42,9.10
2015,02,12,00,43,9.10
2015,02,12,00,44,9.10
2015,02,12,00,45,9.10
2015,02,12,00,46,9.00
2015,02,12,00,47,8.90
2015,02,12,00,48,8.90
2015,02,12,00,49,8.90
2015,02,12,00,50,8.90
2015,02,12,00,51,8.80
2015,02,12,00,52,8.80
2015,02,12,00,53,8.80
2015,02,12,00,54,8.80
2015,02,12,00,55,8.80
2015,02,12,00,56,8.80
2015,02,12,00,57,8.70
2015,02,12,00,58,8.70
2015,02,12,00,59,8.70
2015,02,12,01,00,8.70
2015,02,12,01,01,8.70
2015,02,12,01,02,8.70
2015,02,12,01,03,8.70
2015,02,12,01,04,8.70
2015,02,12,01,05,8.70
2015,02,12,01,06,8.60
2015,02,12,01,07,8.60
2015,02,12,01,08,8.60
2015,02,12,01,09,8.60
2015,02,12,01,10,8.60
2015,02,12,01,11,8.60
2015,02,12,01,12,8.60
2015,02,12,01,13,8.60
2015,02,12,01,14,8.60
2015,02,12,01,15,8.60
2015,02,12,01,16,8.60
2015,02,12,01,17,8.60
2015,02,12,01,18,8.60
2015,02,12,01,19,8.60
2015,02,12,01,20,8.60
2015,02,12,01,21,8.60
2015,02,12,01,22,8.60
2015,02,12,01,23,8.60
2015,02,12,01,24,8.60
2015,02,12,01,25,8.60
2015,02,12,01,26,8.60
2015,02,12,01,27,8.60
2015,02,12,01,28,8.60
2015,02,12,01,29,8.60
2015,02,12,01,30,8.60
2015,02,12,01,31,8.60
2015,02,12,01,32,8.70
2015,02,12,01,33,8.70
2015,02,12,01,34,8.70
2015,02,12,01,35,8.70
2015,02,12,01,36,8.70
2015,02,12,01,37,8.70
2015,02,12,01,38,8.70
2015,02,12,01,39,8.70
2015,02,12,01,40,8.70
2015,02,12,01,41,8.70
2015,02,12,01,42,8.70
2015,02,12,01,43,8.70
2015,02,12,01,44,8.70
2015,02,12,01,45,8.70
2015,02,12,01,46,8.70
2015,02,12,01,47,8.70
2015,02,12,01,48,8.60
2015,02,12,01,49,8.60
2015,02,12,01,50,8.70
2015,02,12,01,51,8.60
2015,02,12,01,52,8.60
2015,02,12,01,53,8.60
2015,02,12,01,54,8.60
2015,02,12,01,55,8.60
2015,02,12,01,56,8.60
2015,02,12,01,57,8.60
2015,02,12,01,58,8.60
2015,02,12,01,59,8.60
2015,02,12,02,00,8.60
2015,02,12,02,01,8.60
2015,02,12,02,02,8.60
2015,02,12,02,03,8.60
2015,02,12,02,04,8.60
2015,02,12,02,05,8.60
2015,02,12,02,06,8.60
2015,02,12,02,07,8.60
2015,02,12,02,08,8.60
2015,02,12,02,09,8.60
2015,02,12,02,10,8.60
2015,02,12,02,11,8.60
2015,02,12,02,12,8.60
2015,02,12,02,13,8.60
2015,02,12,02,14,8.60
2015,02,12,02,15,8.60
2015,02,12,02,16,8.70
2015,02,12,02,17,8.70
2015,02,12,02,18,8.70
2015,02,12,02,19,8.70
2015,02,12,02,20,8.70
2015,02,12,02,21,8.70
2015,02,12,02,22,8.70
2015,02,12,02,23,8.80
2015,02,12,02,24,8.80
2015,02,12,02,25,8.80
2015,02,12,02,26,8.80
2015,02,12,02,27,8.80
2015,02,12,02,28,8.80
2015,02,12,02,29,8.90
2015,02,12,02,30,8.90
2015,02,12,02,31,8.90
2015,02,12,02,32,8.90
2015,02,12,02,33,8.90
2015,02,12,02,34,8.90
2015,02,12,02,35,8.90
2015,02,12,02,36,8.90
2015,02,12,02,37,8.90
2015,02,12,02,38,8.90
2015,02,12,02,39,8.90
2015,02,12,02,40,8.90
2015,02,12,02,41,9.00
2015,02,12,02,42,9.00
2015,02,12,02,43,9.00
2015,02,12,02,44,9.00
2015,02,12,02,45,9.00
2015,02,12,02,46,9.00
2015,02,12,02,47,9.00
2015,02,12,02,48,9.00
2015,02,12,02,49,9.00
2015,02,12,02,50,9.00
2015,02,12,02,51,9.00
2015,02,12,02,52,9.00
2015,02,12,02,53,9.00
2015,02,12,02,54,9.10
2015,02,12,02,55,9.10
2015,02,12,02,56,9.10
2015,02,12,02,57,9.10
2015,02,12,02,58,9.10
2015,02,12,02,59,9.10
2015,02,12,03,00,9.10
2015,02,12,03,01,9.10
2015,02,12,03,02,9.10
2015,02,12,03,03,9.10
2015,02,12,03,04,9.20
2015,02,12,03,05,9.20
2015,02,12,03,06,9.20
2015,02,12,03,07,9.20
2015,02,12,03,08,9.20
2015,02,12,03,09,9.20
2015,02,12,03,10,9.20
2015,02,12,03,11,9.20
2015,02,12,03,12,9.20
2015,02,12,03,13,9.20
2015,02,12,03,14,9.20
2015,02,12,03,15,9.20
2015,02,12,03,16,9.20
2015,02,12,03,17,9.20
2015,02,12,03,18,9.20
2015,02,12,03,19,9.20
2015,02,12,03,20,9.20
2015,02,12,03,21,9.20
2015,02,12,03,22,9.20
2015,02,12,03,23,9.20
2015,02,12,03,24,9.20
2015,02,12,03,25,9.20
2015,02,12,03,26,9.20
2015,02,12,03,27,9.20
2015,02,12,03,28,9.20
2015,02,12,03,29,9.20
2015,02,12,03,30,9.20
2015,02,12,03,31,9.20
2015,02,12,03,32,9.20
2015,02,12,03,33,9.20
2015,02,12,03,34,9.20
2015,02,12,03,35,9.20
2015,02,12,03,36,9.20
2015,02,12,03,37,9.20
2015,02,12,03,38,9.20
2015,02,12,03,39,9.20
2015,02,12,03,40,9.20
2015,02,12,03,41,9.20
2015,02,12,03,42,9.20
2015,02,12,03,43,9.20
2015,02,12,03,44,9.20
2015,02,12,03,45,9.20
2015,02,12,03,46,9.20
2015,02,12,03,47,9.20
2015,02,12,03,48,9.20
2015,02,12,03,49,9.20
2015,02,12,03,50,9.20
2015,02,12,03,51,9.20
2015,02,12,03,52,9.20
2015,02,12,03,53,9.20
2015,02,12,03,54,9.20
2015,02,12,03,55,9.20
2015,02,12,03,56,9.20
2015,02,12,03,57,9.20
2015,02,12,03,58,9.20
2015,02,12,03,59,9.20
2015,02,12,04,00,9.20
2015,02,12,04,01,9.20
2015,02,12,04,02,9.20
2015,02,12,04,03,9.20
2015,02,12,04,04,9.20
2015,02,12,04,05,9.20
2015,02,12,04,06,9.20
2015,02,12,04,07,9.30
2015,02,12,04,08,9.30
2015,02,12,04,09,9.30
2015,02,12,04,10,9.30
2015,02,12,04,11,9.30
2015,02,12,04,12,9.30
2015,02,12,04,13,9.30
2015,02,12,04,14,9.30
2015,02,12,04,15,9.30
2015,02,12,04,16,9.30
2015,02,12,04,17,9.30
2015,02,12,04,18,9.20
2015,02,12,04,19,9.20
2015,02,12,04,20,9.20
2015,02,12,04,21,9.20
2015,02,12,04,22,9.20
2015,02,12,04,23,9.20
2015,02,12,04,24,9.20
2015,02,12,04,25,9.20
2015,02,12,04,26,9.20
2015,02,12,04,27,9.10
2015,02,12,04,28,9.10
2015,02,12,04,29,9.10
2015,02,12,04,30,9.10
2015,02,12,04,31,9.10
2015,02,12,04,32,9.10
2015,02,12,04,33,9.10
2015,02,12,04,34,9.10
2015,02,12,04,35,9.10
2015,02,12,04,36,9.10
2015,02,12,04,37,9.10
2015,02,12,04,38,9.10
2015,02,12,04,39,9.10
2015,02,12,04,40,9.10
2015,02,12,04,41,9.10
2015,02,12,04,42,9.00
2015,02,12,04,43,9.00
2015,02,12,04,44,9.00
2015,02,12,04,45,9.00
2015,02,12,04,46,9.00
2015,02,12,04,47,9.00
2015,02,12,04,48,9.00
2015,02,12,04,49,8.90
2015,02,12,04,50,8.90
2015,02,12,04,51,8.90
2015,02,12,04,52,8.90
2015,02,12,04,53,8.90
2015,02,12,04,54,8.90
2015,02,12,04,55,8.90
2015,02,12,04,56,8.90
2015,02,12,04,57,8.90
2015,02,12,04,58,8.90
2015,02,12,04,59,8.90
2015,02,12,05,00,8.90
2015,02,12,05,01,8.90
2015,02,12,05,02,8.90
2015,02,12,05,03,8.90
2015,02,12,05,04,8.90
2015,02,12,05,05,8.80
2015,02,12,05,06,8.80
2015,02,12,05,07,8.80
2015,02,12,05,08,8.80
2015,02,12,05,09,8.80
2015,02,12,05,10,8.80
2015,02,12,05,11,8.80
2015,02,12,05,12,8.80
2015,02,12,05,13,8.80
2015,02,12,05,14,8.80
2015,02,12,05,15,8.80
2015,02,12,05,16,8.80
2015,02,12,05,17,8.80
2015,02,12,05,18,8.80
2015,02,12,05,19,8.80
2015,02,12,05,20,8.80
2015,02,12,05,21,8.80
2015,02,12,05,22,8.80
2015,02,12,05,23,8.90
2015,02,12,05,24,8.90
2015,02,12,05,25,8.90
2015,02,12,05,26,8.90
2015,02,12,05,27,8.90
2015,02,12,05,28,8.90
2015,02,12,05,29,8.90
2015,02,12,05,30,8.90
2015,02,12,05,31,9.00
2015,02,12,05,32,9.00
2015,02,12,05,33,9.00
2015,02,12,05,34,9.00
2015,02,12,05,35,9.00
2015,02,12,05,36,9.00
2015,02,12,05,37,9.00
2015,02,12,05,38,9.00
2015,02,12,05,39,9.00
2015,02,12,05,40,8.80
2015,02,12,05,41,8.80
2015,02,12,05,42,8.80
2015,02,12,05,43,8.80
2015,02,12,05,44,8.80
2015,02,12,05,45,8.80
2015,02,12,05,46,8.80
2015,02,12,05,47,8.80
2015,02,12,05,48,8.80
2015,02,12,05,49,8.70
2015,02,12,05,50,8.70
2015,02,12,05,51,8.70
2015,02,12,05,52,8.70
2015,02,12,05,53,8.70
2015,02,12,05,54,8.70
2015,02,12,05,55,8.70
2015,02,12,05,56,8.70
2015,02,12,05,57,8.70
2015,02,12,05,58,8.70
2015,02,12,05,59,8.70
2015,02,12,06,00,8.70
2015,02,12,06,01,8.70
2015,02,12,06,02,8.70
2015,02,12,06,03,8.70
2015,02,12,06,04,8.70
2015,02,12,06,05,8.70
2015,02,12,06,06,8.70
2015,02,12,06,07,8.70
2015,02,12,06,08,8.70
2015,02,12,06,09,8.70
2015,02,12,06,10,8.70
2015,02,12,06,11,8.70
2015,02,12,06,12,8.60
2015,02,12,06,13,8.60
2015,02,12,06,14,8.60
2015,02,12,06,15,8.60
2015,02,12,06,16,8.60
2015,02,12,06,17,8.60
2015,02,12,06,18,8.60
2015,02,12,06,19,8.60
2015,02,12,06,20,8.60
2015,02,12,06,21,8.60
2015,02,12,06,22,8.60
2015,02,12,06,23,8.60
2015,02,12,06,24,8.60
2015,02,12,06,25,8.60
2015,02,12,06,26,8.60
2015,02,12,06,27,8.60
2015,02,12,06,28,8.60
2015,02,12,06,29,8.60
2015,02,12,06,30,8.60
2015,02,12,06,31,8.60
2015,02,12,06,32,8.60
2015,02,12,06,33,8.60
2015,02,12,06,34,8.60
2015,02,12,06,35,8.60
2015,02,12,06,36,8.60
2015,02,12,06,37,8.60
2015,02,12,06,38,8.60
2015,02,12,06,39,8.60
2015,02,12,06,40,8.60
2015,02,12,06,41,8.60
2015,02,12,06,42,8.60
2015,02,12,06,43,8.60
2015,02,12,06,44,8.60
2015,02,12,06,45,8.60
2015,02,12,06,46,8.60
2015,02,12,06,47,8.60
2015,02,12,06,48,8.60
2015,02,12,06,49,8.60
2015,02,12,06,50,8.60
2015,02,12,06,51,8.60
2015,02,12,06,52,8.60
2015,02,12,06,53,8.60
2015,02,12,06,54,8.60
2015,02,12,06,55,8.60
2015,02,12,06,56,8.60
2015,02,12,06,57,8.60
2015,02,12,06,58,8.60
2015,02,12,06,59,8.60
2015,02,12,07,00,8.60
2015,02,12,07,01,8.60
2015,02,12,07,02,8.60
2015,02,12,07,03,8.60
2015,02,12,07,04,8.60
2015,02,12,07,05,8.60
2015,02,12,07,06,8.60
2015,02,12,07,07,8.60
2015,02,12,07,08,8.60
2015,02,12,07,09,8.60
2015,02,12,07,10,8.60
2015,02,12,07,11,8.60
2015,02,12,07,12,8.50
2015,02,12,07,13,8.50
2015,02,12,07,14,8.50
2015,02,12,07,15,8.60
2015,02,12,07,16,8.60
2015,02,12,07,17,8.60
2015,02,12,07,18,8.60
2015,02,12,07,19,8.60
2015,02,12,07,20,8.60
2015,02,12,07,21,8.60
2015,02,12,07,22,8.60
2015,02,12,07,23,8.60
2015,02,12,07,24,8.60
2015,02,12,07,25,8.60
2015,02,12,07,26,8.60
2015,02,12,07,27,8.60
2015,02,12,07,28,8.60
2015,02,12,07,29,8.60
2015,02,12,07,30,8.60
2015,02,12,07,31,8.60
2015,02,12,07,32,8.60
2015,02,12,07,33,8.60
2015,02,12,07,34,8.60
2015,02,12,07,35,8.60
2015,02,12,07,36,8.60
2015,02,12,07,37,8.60
2015,02,12,07,38,8.50
2015,02,12,07,39,8.50
2015,02,12,07,40,8.50
2015,02,12,07,41,8.50
2015,02,12,07,42,8.50
2015,02,12,07,43,8.50
2015,02,12,07,44,8.50
2015,02,12,07,45,8.50
2015,02,12,07,46,8.50
2015,02,12,07,47,8.50
2015,02,12,07,48,8.50
2015,02,12,07,49,8.50
2015,02,12,07,50,8.50
2015,02,12,07,51,8.50
2015,02,12,07,52,8.50
2015,02,12,07,53,8.60
2015,02,12,07,54,8.60
2015,02,12,07,55,8.60
2015,02,12,07,56,8.60
2015,02,12,07,57,8.60
2015,02,12,07,58,8.60
2015,02,12,07,59,8.60
2015,02,12,08,00,8.60
2015,02,12,08,01,8.60
2015,02,12,08,02,8.60
2015,02,12,08,03,8.60
2015,02,12,08,04,8.60
2015,02,12,08,05,8.60
2015,02,12,08,06,8.70
2015,02,12,08,07,8.70
2015,02,12,08,08,8.70
2015,02,12,08,09,8.70
2015,02,12,08,10,8.70
2015,02,12,08,11,8.70
2015,02,12,08,12,8.70
2015,02,12,08,13,8.70
2015,02,12,08,14,8.70
2015,02,12,08,15,8.70
2015,02,12,08,16,8.70
2015,02,12,08,17,8.70
2015,02,12,08,18,8.70
2015,02,12,08,19,8.70
2015,02,12,08,20,8.70
2015,02,12,08,21,8.70
2015,02,12,08,22,8.70
2015,02,12,08,23,8.70
2015,02,12,08,24,8.70
2015,02,12,08,25,8.70
2015,02,12,08,26,8.70
2015,02,12,08,27,8.70
2015,02,12,08,28,8.70
2015,02,12,08,29,8.60
2015,02,12,08,30,8.70
2015,02,12,08,31,8.70
2015,02,12,08,32,8.70
2015,02,12,08,33,8.70
2015,02,12,08,34,8.70
2015,02,12,08,35,8.70
2015,02,12,08,36,8.70
2015,02,12,08,37,8.70
2015,02,12,08,38,8.70
2015,02,12,08,39,8.70
2015,02,12,08,40,8.80
2015,02,12,08,41,8.80
2015,02,12,08,42,8.80
2015,02,12,08,43,8.80
2015,02,12,08,44,8.90
2015,02,12,08,45,8.90
2015,02,12,08,46,8.90
2015,02,12,08,47,9.00
2015,02,12,08,48,9.00
2015,02,12,08,49,9.00
2015,02,12,08,50,9.10
2015,02,12,08,51,9.10
2015,02,12,08,52,9.10
2015,02,12,08,53,9.10
2015,02,12,08,54,9.20
2015,02,12,08,55,9.20
2015,02,12,08,56,9.20
2015,02,12,08,57,9.20
2015,02,12,08,58,9.20
2015,02,12,08,59,9.20
2015,02,12,09,00,9.20
2015,02,12,09,01,9.20
2015,02,12,09,02,9.20
2015,02,12,09,03,9.20
2015,02,12,09,04,9.20
2015,02,12,09,05,9.20
2015,02,12,09,06,9.20
2015,02,12,09,07,9.20
2015,02,12,09,08,9.20
2015,02,12,09,09,9.20
2015,02,12,09,10,9.10
2015,02,12,09,11,9.10
2015,02,12,09,12,9.10
2015,02,12,09,13,9.00
2015,02,12,09,14,9.00
2015,02,12,09,15,9.00
2015,02,12,09,16,8.90
2015,02,12,09,17,8.90
2015,02,12,09,18,8.90
2015,02,12,09,19,8.90
2015,02,12,09,20,8.90
2015,02,12,09,21,8.90
2015,02,12,09,22,8.90
2015,02,12,09,23,8.90
2015,02,12,09,24,8.90
2015,02,12,09,25,8.90
2015,02,12,09,26,8.90
2015,02,12,09,27,8.90
2015,02,12,09,28,8.90
2015,02,12,09,29,8.90
2015,02,12,09,30,8.90
2015,02,12,09,31,8.80
2015,02,12,09,32,8.80
2015,02,12,09,33,8.80
2015,02,12,09,34,8.80
2015,02,12,09,35,8.80
2015,02,12,09,36,8.80
2015,02,12,09,37,8.80
2015,02,12,09,38,8.80
2015,02,12,09,39,8.80
2015,02,12,09,40,8.80
2015,02,12,09,41,8.80
2015,02,12,09,42,8.80
2015,02,12,09,43,8.80
2015,02,12,09,44,8.80
2015,02,12,09,45,8.80
2015,02,12,09,46,8.80
2015,02,12,09,47,8.80
2015,02,12,09,48,8.80
2015,02,12,09,49,8.90
2015,02,12,09,50,8.90
2015,02,12,09,51,8.90
2015,02,12,09,52,8.90
2015,02,12,09,53,8.90
2015,02,12,09,54,8.90
2015,02,12,09,55,8.90
2015,02,12,09,56,8.90
2015,02,12,09,57,8.90
2015,02,12,09,58,8.90
2015,02,12,09,59,8.90
2015,02,12,10,00,8.90
2015,02,12,10,01,8.90
2015,02,12,10,02,8.90
2015,02,12,10,03,8.90
2015,02,12,10,04,8.90
2015,02,12,10,05,8.90
2015,02,12,10,06,8.90
2015,02,12,10,07,8.90
2015,02,12,10,08,8.90
2015,02,12,10,09,8.90
2015,02,12,10,10,8.90
2015,02,12,10,11,8.90
2015,02,12,10,12,8.90
2015,02,12,10,13,8.90
2015,02,12,10,14,8.90
2015,02,12,10,15,8.90
2015,02,12,10,16,8.90
2015,02,12,10,17,8.90
2015,02,12,10,18,8.90
2015,02,12,10,19,8.90
2015,02,12,10,20,8.90
2015,02,12,10,21,8.90
2015,02,12,10,22,8.90
2015,02,12,10,23,8.90
2015,02,12,10,24,8.90
2015,02,12,10,25,8.90
2015,02,12,10,26,8.90
2015,02,12,10,27,8.90
2015,02,12,10,28,8.90
2015,02,12,10,29,8.90
2015,02,12,10,30,8.90
2015,02,12,10,31,8.90
2015,02,12,10,32,8.90
2015,02,12,10,33,8.90
2015,02,12,10,34,8.90
2015,02,12,10,35,8.90
2015,02,12,10,36,8.90
2015,02,12,10,37,8.90
2015,02,12,10,38,8.90
2015,02,12,10,39,8.90
2015,02,12,10,40,8.90
2015,02,12,10,41,8.90
2015,02,12,10,42,8.90
2015,02,12,10,43,8.90
2015,02,12,10,44,8.90
2015,02,12,10,45,8.90
2015,02,12,10,46,8.90
2015,02,12,10,47,8.90
2015,02,12,10,48,8.90
2015,02,12,10,49,8.90
2015,02,12,10,50,8.90
2015,02,12,10,51,8.90
2015,02,12,10,52,8.90
2015,02,12,10,53,8.90
2015,02,12,10,54,8.90
2015,02,12,10,55,8.90
2015,02,12,10,56,8.90
2015,02,12,10,57,8.90
2015,02,12,10,58,8.90
2015,02,12,10,59,8.90
2015,02,12,11,00,8.90
2015,02,12,11,01,8.90
2015,02,12,11,02,8.90
2015,02,12,11,03,8.90
2015,02,12,11,04,8.90
2015,02,12,11,05,8.90
2015,02,12,11,06,8.90
2015,02,12,11,07,9.00
2015,02,12,11,08,9.00
2015,02,12,11,09,9.00
2015,02,12,11,10,9.00
2015,02,12,11,11,9.00
2015,02,12,11,12,9.00
2015,02,12,11,13,9.00
2015,02,12,11,14,9.00
2015,02,12,11,15,9.00
2015,02,12,11,16,8.90
2015,02,12,11,17,8.90
2015,02,12,11,18,8.90
2015,02,12,11,19,8.90
2015,02,12,11,20,8.90
2015,02,12,11,21,8.90
2015,02,12,11,22,8.90
2015,02,12,11,23,8.90
2015,02,12,11,24,8.90
2015,02,12,11,25,8.90
2015,02,12,11,26,8.90
2015,02,12,11,27,8.90
2015,02,12,11,28,8.90
2015,02,12,11,29,8.90
2015,02,12,11,30,8.90
2015,02,12,11,31,8.90
2015,02,12,11,32,8.90
2015,02,12,11,33,8.90
2015,02,12,11,34,8.90
2015,02,12,11,35,8.90
2015,02,12,11,36,8.90
2015,02,12,11,37,8.90
2015,02,12,11,38,8.90
2015,02,12,11,39,8.90
2015,02,12,11,40,8.90
2015,02,12,11,41,8.90
2015,02,12,11,42,8.90
2015,02,12,11,43,8.90
2015,02,12,11,44,8.90
2015,02,12,11,45,8.90
2015,02,12,11,46,8.90
2015,02,12,11,47,8.90
2015,02,12,11,48,8.90
2015,02,12,11,49,8.90
2015,02,12,11,50,8.90
2015,02,12,11,51,8.90
2015,02,12,11,52,8.90
2015,02,12,11,53,8.90
2015,02,12,11,54,9.00
2015,02,12,11,55,9.00
2015,02,12,11,56,9.00
2015,02,12,11,57,9.00
2015,02,12,11,58,9.00
2015,02,12,11,59,9.00
2015,02,12,12,00,9.00
2015,02,12,12,01,9.00
2015,02,12,12,02,9.00
2015,02,12,12,03,9.00
2015,02,12,12,04,9.00
2015,02,12,12,05,9.00
2015,02,12,12,06,9.00
2015,02,12,12,07,9.00
2015,02,12,12,08,9.00
2015,02,12,12,09,9.00
2015,02,12,12,10,9.10
2015,02,12,12,11,9.10
2015,02,12,12,12,9.10
2015,02,12,12,13,9.10
2015,02,12,12,14,9.10
2015,02,12,12,15,9.10
2015,02,12,12,16,9.10
2015,02,12,12,17,9.10
2015,02,12,12,18,9.10
2015,02,12,12,19,9.10
2015,02,12,12,20,9.10
2015,02,12,12,21,9.10
2015,02,12,12,22,9.10
2015,02,12,12,23,9.10
2015,02,12,12,24,9.10
2015,02,12,12,25,9.10
2015,02,12,12,26,9.10
2015,02,12,12,27,9.10
2015,02,12,12,28,9.10
2015,02,12,12,29,9.10
2015,02,12,12,30,9.10
2015,02,12,12,31,9.10
2015,02,12,12,32,9.10
2015,02,12,12,33,9.10
2015,02,12,12,34,9.10
2015,02,12,12,35,9.10
2015,02,12,12,36,9.10
2015,02,12,12,37,9.10
2015,02,12,12,38,9.10
2015,02,12,12,39,9.10
2015,02,12,12,40,9.10
2015,02,12,12,41,9.20
2015,02,12,12,42,9.20
2015,02,12,12,43,9.20
2015,02,12,12,44,9.20
2015,02,12,12,45,9.20
2015,02,12,12,46,9.20
2015,02,12,12,47,9.20
2015,02,12,12,48,9.20
2015,02,12,12,49,9.20
2015,02,12,12,50,9.20
2015,02,12,12,51,9.20
2015,02,12,12,52,9.20
2015,02,12,12,53,9.20
2015,02,12,12,54,9.20
2015,02,12,12,55,9.30
2015,02,12,12,56,9.30
2015,02,12,12,57,9.30
2015,02,12,12,58,9.30
2015,02,12,12,59,9.30
2015,02,12,13,00,9.30
2015,02,12,13,01,9.30
2015,02,12,13,02,9.30
2015,02,12,13,03,9.30
2015,02,12,13,04,9.30
2015,02,12,13,05,9.30
2015,02,12,13,06,9.30
2015,02,12,13,07,9.30
2015,02,12,13,08,9.30
2015,02,12,13,09,9.30
2015,02,12,13,10,9.30
2015,02,12,13,11,9.30
2015,02,12,13,12,9.30
2015,02,12,13,13,9.30
2015,02,12,13,14,9.30
2015,02,12,13,15,9.30
2015,02,12,13,16,9.30
2015,02,12,13,17,9.30
2015,02,12,13,18,9.30
2015,02,12,13,19,9.30
2015,02,12,13,20,9.30
2015,02,12,13,21,9.30
2015,02,12,13,22,9.30
2015,02,12,13,23,9.30
2015,02,12,13,24,9.30
2015,02,12,13,25,9.30
2015,02,12,21,03,9.30
2015,02,12,21,04,9.30
2015,02,12,21,05,9.30
2015,02,12,21,06,9.30
2015,02,12,21,07,9.30
2015,02,12,21,08,9.30
2015,02,12,21,09,9.30
2015,02,12,21,10,9.30
2015,02,12,21,11,9.30
2015,02,12,21,12,9.30
2015,02,12,21,13,9.30
2015,02,12,21,14,9.30
2015,02,12,21,15,9.30
2015,02,12,21,16,9.30
2015,02,12,21,17,9.30
2015,02,12,21,18,9.30
2015,02,12,21,19,9.30
2015,02,12,21,20,9.30
2015,02,12,21,21,9.30
2015,02,12,21,22,9.30
2015,02,12,21,23,9.30
2015,02,12,21,24,9.30
2015,02,12,21,25,9.30
2015,02,12,21,26,9.30
2015,02,12,21,27,9.30
2015,02,12,21,28,9.30
2015,02,12,21,29,9.30
2015,02,12,21,30,9.30
2015,02,12,21,31,9.30
2015,02,12,21,32,9.30
2015,02,12,21,33,9.30
2015,02,12,21,34,9.30
2015,02,12,21,35,9.30
2015,02,12,21,36,9.30
2015,02,12,21,37,9.30
2015,02,12,21,38,9.30
2015,02,12,21,39,9.30
2015,02,12,21,40,9.30
2015,02,12,21,41,9.30
2015,02,12,21,42,9.30
2015,02,12,21,43,9.30
2015,02,12,21,44,9.30
2015,02,12,21,45,9.30
2015,02,12,21,46,9.30
2015,02,12,21,47,9.30
2015,02,12,21,48,9.30
2015,02,12,21,49,9.30
2015,02,12,21,50,9.30
2015,02,12,21,51,9.30
2015,02,12,21,52,9.30
2015,02,12,21,53,9.30
2015,02,12,21,54,9.30
2015,02,12,21,55,9.30
2015,02,12,21,56,9.30
2015,02,12,21,57,9.30
2015,02,12,21,58,9.30
2015,02,12,21,59,9.30
2015,02,12,22,00,9.30
2015,02,12,22,01,9.30
2015,02,12,22,02,9.30
2015,02,12,22,03,9.30
2015,02,12,22,04,9.30
2015,02,12,22,05,9.30
2015,02,12,22,06,9.30
2015,02,12,22,07,9.30
2015,02,12,22,08,9.30
2015,02,12,22,09,9.30
2015,02,12,22,10,9.30
2015,02,12,22,11,9.30
2015,02,12,22,12,9.30
2015,02,12,22,13,9.40
2015,02,12,22,14,9.30
2015,02,12,22,15,9.30
2015,02,12,22,16,9.30
2015,02,12,22,17,9.30
2015,02,12,22,18,9.30
2015,02,12,22,19,9.30
2015,02,12,22,20,9.30
2015,02,12,22,21,9.30
2015,02,12,22,22,9.30
2015,02,12,22,23,9.30
2015,02,12,22,24,9.30
2015,02,12,22,25,9.30
2015,02,12,22,26,9.30
2015,02,12,22,27,9.30
2015,02,12,22,28,9.30
2015,02,12,22,29,9.30
2015,02,12,22,30,9.30
2015,02,12,22,31,9.30
2015,02,12,22,32,9.30
2015,02,12,22,33,9.30
2015,02,12,22,34,9.30
2015,02,12,22,35,9.30
2015,02,12,22,36,9.30
2015,02,12,22,37,9.30
2015,02,12,22,38,9.40
2015,02,12,22,39,9.40
2015,02,12,22,40,9.40
2015,02,12,22,41,9.40
2015,02,12,22,42,9.40
2015,02,12,22,43,9.40
2015,02,12,22,44,9.30
2015,02,12,22,45,9.40
2015,02,12,22,46,9.40
2015,02,12,22,47,9.40
2015,02,12,22,48,9.40
2015,02,12,22,49,9.40
2015,02,12,22,50,9.40
2015,02,12,22,51,9.40
2015,02,12,22,52,9.40
2015,02,12,22,53,9.40
2015,02,12,22,54,9.40
2015,02,12,22,55,9.40
2015,02,12,22,56,9.40
2015,02,12,22,57,9.40
2015,02,12,22,58,9.40
2015,02,12,22,59,9.40
2015,02,12,23,00,9.40
2015,02,12,23,01,9.50
2015,02,12,23,02,9.50
2015,02,12,23,03,9.50
2015,02,12,23,04,9.50
2015,02,12,23,05,9.50
2015,02,12,23,06,9.50
2015,02,12,23,07,9.50
2015,02,12,23,08,9.50
2015,02,12,23,09,9.50
2015,02,12,23,10,9.50
2015,02,12,23,11,9.50
2015,02,12,23,12,9.60
2015,02,12,23,13,9.60
2015,02,12,23,14,9.60
2015,02,12,23,15,9.60
2015,02,12,23,16,9.60
2015,02,12,23,17,9.60
2015,02,12,23,18,9.60
2015,02,12,23,19,9.60
2015,02,12,23,20,9.60
2015,02,12,23,21,9.60
2015,02,12,23,22,9.60
2015,02,12,23,23,9.60
2015,02,12,23,24,9.60
2015,02,12,23,25,9.60
2015,02,12,23,26,9.60
2015,02,12,23,27,9.60
2015,02,12,23,28,9.60
2015,02,12,23,29,9.60
2015,02,12,23,30,9.60
2015,02,12,23,31,9.60
2015,02,12,23,32,9.60
2015,02,12,23,33,9.60
2015,02,12,23,34,9.60
2015,02,12,23,35,9.60
2015,02,12,23,36,9.60
2015,02,12,23,37,9.60
2015,02,12,23,38,9.60
2015,02,12,23,39,9.60
2015,02,12,23,40,9.60
2015,02,12,23,41,9.60
2015,02,12,23,42,9.60
2015,02,12,23,43,9.60
2015,02,12,23,44,9.60
2015,02,12,23,45,9.60
2015,02,12,23,46,9.60
2015,02,12,23,47,9.60
2015,02,12,23,48,9.60
2015,02,12,23,49,9.60
2015,02,12,23,50,9.60
2015,02,12,23,51,9.60
2015,02,12,23,52,9.60
2015,02,12,23,53,9.60
2015,02,12,23,54,9.60
2015,02,12,23,55,9.60
2015,02,12,23,56,9.60
2015,02,12,23,57,9.60
2015,02,12,23,58,9.60
2015,02,12,23,59,9.60
